TimeCDT,TemperatureF,Dew PointF,Humidity,Sea Level PressureIn,VisibilityMPH,Wind Direction,Wind SpeedMPH,Gust SpeedMPH,PrecipitationIn,Events,Conditions,WindDirDegrees,DateUTC
12:53 AM,69.1,66.0,90,29.86,10.0,East,4.6,-,N/A,,Mostly Cloudy,90,2013-05-01 05:53:00
1:53 AM,69.1,66.0,90,29.85,10.0,East,5.8,-,N/A,,Overcast,80,2013-05-01 06:53:00
2:53 AM,68.0,64.9,90,29.84,10.0,East,6.9,-,N/A,,Partly Cloudy,80,2013-05-01 07:53:00
3:53 AM,66.9,64.9,93,29.84,10.0,NE,4.6,-,N/A,,Scattered Clouds,50,2013-05-01 08:53:00
4:53 AM,66.2,64.4,94,29.82,10.0,ENE,4.6,-,N/A,,Clear,70,2013-05-01 09:53:00
5:53 AM,66.9,64.9,93,29.87,8.0,ENE,3.5,-,N/A,,Overcast,70,2013-05-01 10:53:00
6:53 AM,68.0,64.9,90,29.88,2.5,NE,3.5,-,0.01,Rain,Rain,50,2013-05-01 11:53:00
7:09 AM,66.2,64.4,94,29.87,3.0,ENE,4.6,-,0.02,Rain,Light Rain,70,2013-05-01 12:09:00
7:53 AM,68.0,66.2,94,29.87,4.0,East,4.6,-,N/A,,Mostly Cloudy,90,2013-05-01 12:53:00
8:05 AM,69.8,66.2,88,29.88,2.0,ESE,3.5,-,N/A,,Mostly Cloudy,120,2013-05-01 13:05:00
8:34 AM,69.8,66.2,88,29.88,2.0,ESE,4.6,-,N/A,,Overcast,120,2013-05-01 13:34:00
8:43 AM,69.8,66.2,88,29.89,7.0,SE,4.6,-,N/A,,Mostly Cloudy,130,2013-05-01 13:43:00
8:53 AM,71.1,66.9,87,29.91,9.0,SE,3.5,-,N/A,,Mostly Cloudy,130,2013-05-01 13:53:00
9:08 AM,71.6,66.2,83,29.89,10.0,SE,5.8,-,N/A,,Scattered Clouds,140,2013-05-01 14:08:00
9:53 AM,73.9,64.9,73,29.91,10.0,SE,6.9,-,N/A,,Mostly Cloudy,130,2013-05-01 14:53:00
10:53 AM,75.9,64.0,67,29.91,10.0,East,6.9,-,N/A,,Clear,90,2013-05-01 15:53:00
11:43 AM,77.0,64.4,65,29.88,10.0,ESE,5.8,-,N/A,,Mostly Cloudy,120,2013-05-01 16:43:00
11:51 AM,77.0,64.4,65,29.88,10.0,SSE,5.8,-,N/A,,Mostly Cloudy,150,2013-05-01 16:51:00
11:53 AM,77.0,64.0,64,29.90,10.0,Variable,5.8,-,N/A,,Overcast,0,2013-05-01 16:53:00
12:05 PM,78.8,64.4,61,29.87,10.0,North,4.6,-,N/A,,Mostly Cloudy,350,2013-05-01 17:05:00
12:53 PM,78.1,64.9,64,29.89,10.0,West,6.9,-,N/A,,Mostly Cloudy,260,2013-05-01 17:53:00
1:53 PM,80.1,66.0,62,29.88,10.0,Calm,Calm,-,N/A,,Scattered Clouds,0,2013-05-01 18:53:00
2:44 PM,82.4,62.6,51,29.85,10.0,Calm,Calm,-,N/A,Thunderstorm,Thunderstorm,0,2013-05-01 19:44:00
2:53 PM,81.0,66.9,62,29.87,10.0,ENE,11.5,19.6,N/A,Thunderstorm,Thunderstorm,70,2013-05-01 19:53:00
3:15 PM,78.8,66.2,65,29.84,10.0,ENE,8.1,-,0.00,Rain,Light Rain,70,2013-05-01 20:15:00
3:26 PM,78.8,64.4,61,29.84,10.0,East,8.1,-,0.00,Thunderstorm,Thunderstorm,80,2013-05-01 20:26:00
3:36 PM,78.8,64.4,61,29.84,10.0,NE,4.6,-,0.00,Thunderstorm,Mostly Cloudy,50,2013-05-01 20:36:00
3:53 PM,78.1,64.9,64,29.86,10.0,Calm,Calm,-,0.00,Thunderstorm,Thunderstorm,0,2013-05-01 20:53:00
4:48 PM,73.4,62.6,69,29.83,10.0,West,4.6,-,N/A,,Partly Cloudy,260,2013-05-01 21:48:00
4:53 PM,73.9,63.0,68,29.86,10.0,West,3.5,-,N/A,,Partly Cloudy,260,2013-05-01 21:53:00
5:53 PM,78.1,63.0,60,29.85,10.0,Calm,Calm,-,N/A,,Clear,0,2013-05-01 22:53:00
6:53 PM,78.1,66.9,68,29.86,10.0,Calm,Calm,-,N/A,,Mostly Cloudy,0,2013-05-01 23:53:00
7:53 PM,75.0,68.0,79,29.86,10.0,Calm,Calm,-,N/A,,Scattered Clouds,0,2013-05-02 00:53:00
8:48 PM,73.4,69.8,88,29.85,10.0,Calm,Calm,-,0.00,Thunderstorm,Scattered Clouds,0,2013-05-02 01:48:00
8:53 PM,73.0,69.1,87,29.88,10.0,Calm,Calm,-,0.00,Thunderstorm,Mostly Cloudy,0,2013-05-02 01:53:00
9:26 PM,75.2,66.2,73,29.87,10.0,NNE,6.9,-,N/A,,Mostly Cloudy,20,2013-05-02 02:26:00
9:53 PM,73.0,64.9,76,29.90,10.0,ENE,13.8,18.4,N/A,,Partly Cloudy,60,2013-05-02 02:53:00
10:53 PM,69.1,64.0,84,29.91,10.0,ENE,3.5,-,N/A,,Clear,70,2013-05-02 03:53:00
11:53 PM,66.9,63.0,87,29.91,10.0,NE,5.8,-,N/A,,Clear,50,2013-05-02 04:53:00